{"data":{"norad_id":43077,"epoch":"2026-05-25T00:56:23.208864Z","epoch_age_seconds":74782,"freshness":"FRESH","line1":"1 43077U 17083H   26145.03915751  .00000060  00000+0  14534-4 0  9995","line2":"2 43077  86.3957 331.6728 0002231  90.1597 269.9854 14.34217730440856","mean_motion":14.3421773,"eccentricity":0.0002231,"inclination_deg":86.3957,"raan_deg":331.6728,"arg_perigee_deg":90.1597,"mean_anomaly_deg":269.9854,"bstar":1.4534e-5,"rev_number":44085,"period_min":100.40316542454,"perigee_km":776.07076095638,"apogee_km":779.26368079974,"semimajor_km":7155.8042208781,"source":"CELESTRAK","updated_at":"2026-05-25T13:38:14.806287Z"}}